[[{"header":{"parameterUnit":"m.s-1","parameterCategory":1,"la1":30.2991,"la2":30.254,"lo1":-89.0895,"lo2":-89.0444,"dy":0.0017,"dx":0.0017,"nx":28,"ny":28,"refTime":"2025-12-11T09:00:00:Z","depth":0,"parameterNumber":2,"parameterNumberName":"U-component_of_WINDS"},"data":[0,0,0,0,0,0,0,0,0,0,0,0,0,0,0,0,0,0,0,0,0,0,0,0,0,0,0,0,0,0,0,0,0,0,0,0,0,0,0,0,0,0,0,0,0,0,0,0,0,0,0,0,0,0,0,0,0,0,-1.3963,-1.3961,0,-1.3859,-1.3858,-1.3857,-1.3774,-1.3773,-1.3772,-1.3772,-1.3665,-1.3663,-1.3661,0,0,0,0,0,0,0,0,0,0,0,0,0,-1.4086,-1.4084,-1.3963,-1.3961,-1.396,-1.3859,-1.3858,-1.3857,-1.3774,-1.3773,-1.3772,-1.3771,-1.3666,-1.3663,-1.3661,0,0,0,0,0,0,0,0,0,0,0,0,0,-1.4013,-1.4084,-1.3963,-1.3907,-1.3901,-1.386,-1.3858,-1.3856,-1.3774,-1.3773,-1.3772,-1.3771,-1.3667,-1.3664,-1.3661,-1.3666,0,0,-1.3651,-1.365,0,0,0,0,0,0,0,0,-1.4017,-1.4008,-1.3916,-1.3911,-1.3904,-1.3828,-1.3862,-1.3793,-1.3775,-1.3822,-1.3772,-1.377,-1.372,-1.3713,-1.3696,-1.3662,-1.3657,-1.3651,-1.3649,-1.3648,-1.3647,0,0,0,0,0,0,0,-1.4022,-1.4012,-1.3922,-1.3915,-1.3907,-1.3886,-1.3874,-1.3849,-1.378,-1.3818,-1.3812,-1.3801,-1.3717,-1.3699,-1.3693,-1.3655,-1.3651,-1.3648,-1.3646,-1.3645,-1.3617,-1.3618,0,0,0,0,0,0,-1.4036,-1.4017,-1.3925,-1.3919,-1.3958,-1.3885,-1.3872,-1.3854,-1.378,-1.3767,-1.3802,-1.3797,-1.3705,-1.3697,-1.3689,-1.3689,-1.3648,-1.3645,-1.3643,-1.3616,-1.3617,-1.3619,0,0,0,0,0,0,-1.4039,-1.4029,-1.3929,-1.3966,-1.3952,-1.3884,-1.3865,-1.3852,-1.3835,-1.3767,-1.3755,-1.3797,-1.3704,-1.3693,-1.3672,-1.3684,-1.3643,-1.3641,-1.3615,-1.3617,-1.3618,-1.369,0,0,0,0,0,0,-1.4043,-1.403,-1.4033,-1.3967,-1.395,-1.3915,-1.3865,-1.3851,-1.383,-1.3823,-1.3759,-1.3748,-1.3702,-1.3677,-1.3669,-1.3679,-1.3638,-1.3613,-1.3616,-1.3618,-1.3687,-1.3694,-1.3701,0,0,0,0,0,-1.4048,-1.4058,-1.4033,-1.4023,-1.3952,-1.3916,-1.3906,-1.3854,-1.3831,-1.3832,-1.3788,-1.375,-1.3684,-1.3676,-1.3666,-1.3675,-1.3612,-1.3615,-1.3617,-1.3683,-1.3693,-1.3701,0,0,0,0,0,0,-1.4127,-1.4048,-1.402,-1.4009,-1.397,-1.3902,-1.3902,-1.3866,-1.3832,-1.3827,-1.3763,-1.3749,-1.3734,-1.3702,-1.3694,-1.3675,-1.3643,-1.3644,-1.3697,-1.3705,-1.3712,-1.372,-1.3636,0,0,0,0,0,-1.4143,-1.4122,-1.4053,-1.405,-1.4032,-1.3971,-1.3953,-1.3916,-1.3872,-1.3855,-1.381,-1.3769,-1.3738,-1.372,-1.3689,-1.3682,-1.3665,-1.3683,-1.369,-1.3697,-1.3698,-1.3689,-1.3695,-1.3627,-1.3627,-1.3627,0,0,-1.4177,-1.4131,-1.4121,-1.4065,-1.403,-1.4008,-1.3957,-1.3936,-1.3918,-1.3852,-1.3828,-1.3794,-1.3744,-1.3729,-1.372,-1.3702,-1.3713,-1.37,-1.3705,-1.3703,-1.3692,-1.3699,-1.3704,-1.3629,-1.3628,-1.3628,0,0,-1.4226,-1.419,-1.4182,-1.4148,-1.4095,-1.4054,-1.4052,-1.3989,-1.3963,-1.3939,-1.3888,-1.3865,-1.3816,-1.3781,-1.3757,-1.3791,-1.3753,-1.3782,-1.3819,-1.3812,-1.3817,-1.3821,-1.3831,-1.3836,-1.3784,-1.3784,-1.3784,0,-1.4274,-1.4239,-1.4183,-1.4164,-1.414,-1.4078,-1.4068,-1.4038,-1.3978,-1.3962,-1.3943,-1.3877,-1.3839,-1.3814,-1.3822,-1.3806,-1.38,-1.3789,-1.3821,-1.3825,-1.3828,-1.3837,-1.3841,-1.3788,-1.3787,-1.3787,-1.3786,0,-1.4299,-1.4275,-1.4275,-1.4218,-1.4194,-1.4181,-1.4121,-1.4103,-1.4068,-1.4028,-1.4002,-1.3954,-1.3911,-1.3903,-1.3868,-1.3872,-1.3862,-1.3833,-1.3799,-1.3839,-1.3846,-1.3849,-1.3793,-1.3792,-1.3791,-1.379,0,0,-1.4396,-1.4307,-1.4308,-1.428,-1.4217,-1.4197,-1.4179,-1.4136,-1.4121,-1.4082,-1.4064,-1.4023,-1.3994,-1.3967,-1.3928,-1.3921,-1.3948,-1.3892,-1.389,-1.3902,-1.3947,-1.3968,-1.3973,-1.3923,-1.3923,-1.3923,-1.395,0,-1.4434,-1.44,-1.4347,-1.433,-1.4306,-1.4245,-1.423,-1.4189,-1.4151,-1.4124,-1.4082,-1.4052,-1.4018,-1.4001,-1.3992,-1.3947,-1.3956,-1.3944,-1.3904,-1.3904,-1.3918,-1.3977,-1.4,-1.4028,-1.3953,-1.3953,-1.3953,0,-1.4474,-1.4437,-1.4417,-1.4352,-1.434,-1.4328,-1.4283,-1.4259,-1.421,-1.4182,-1.4151,-1.4108,-1.4085,-1.4055,-1.4021,-1.4014,-1.3994,-1.397,-1.3969,-1.3963,-1.393,-1.397,-1.4035,-1.4039,-1.3958,-1.3957,-1.3957,0,-1.4544,-1.4489,-1.4469,-1.4448,-1.4373,-1.4365,-1.4334,-1.4284,-1.426,-1.4221,-1.4205,-1.4164,-1.4141,-1.411,-1.4056,-1.404,-1.4027,-1.3993,-1.4003,-1.4004,-1.4002,-1.4003,-1.4063,-1.3992,-1.3992,-1.3992,-1.3992,0,-1.4591,-1.4581,-1.45,-1.4488,-1.4473,-1.4413,-1.44,-1.4363,-1.4318,-1.4296,-1.4242,-1.4223,-1.4154,-1.4126,-1.4084,-1.4061,-1.4051,-1.4027,-1.4016,-1.4031,-1.4034,-1.4017,-1.4013,-1.3993,-1.3993,-1.3993,-1.3993,0,-1.4668,-1.4613,-1.4587,-1.4518,-1.4501,-1.4493,-1.4433,-1.4418,-1.4376,-1.4349,-1.4339,-1.4274,-1.4238,-1.4181,-1.4129,-1.41,-1.4084,-1.4066,-1.4101,-1.4093,-1.4105,-1.4104,-1.4156,-1.4158,-1.4088,-1.4089,-1.4089,0,-1.4701,-1.4691,-1.4621,-1.4602,-1.4573,-1.4544,-1.4519,-1.4459,-1.4435,-1.4377,-1.4369,-1.4329,-1.4293,-1.4238,-1.4185,-1.4144,-1.4124,-1.4145,-1.4118,-1.4133,-1.4122,-1.4123,-1.412,-1.4151,-1.4152,-1.4153,-1.4154,0,-1.4765,-1.4738,-1.4705,-1.4662,-1.4635,-1.4598,-1.4559,-1.4546,-1.4477,-1.4453,-1.4415,-1.4388,-1.4333,-1.4293,-1.4244,-1.421,-1.417,-1.4163,-1.4162,-1.4177,-1.4197,-1.4184,-1.4116,-1.4162,-1.4161,-1.416,-1.416,-1.416,-1.4819,-1.4807,-1.4755,-1.4719,-1.4683,-1.4647,-1.4629,-1.4584,-1.4551,-1.4502,-1.4468,-1.4432,-1.4381,-1.4311,-1.4279,-1.4249,-1.4231,-1.4232,-1.4231,-1.4232,-1.4236,-1.4203,-1.424,-1.424,-1.4239,-1.4239,-1.4239,0,-1.4879,-1.4842,-1.481,-1.4756,-1.4727,-1.4692,-1.4646,-1.4624,-1.4593,-1.4548,-1.4514,-1.4469,-1.443,-1.4373,-1.4329,-1.4315,-1.4295,-1.4306,-1.4305,-1.4298,-1.4256,-1.426,-1.4322,-1.4322,-1.4322,-1.4322,-1.4322,-1.4322,-1.4907,-1.4883,-1.4849,-1.4806,-1.4769,-1.4733,-1.4709,-1.4675,-1.4639,-1.4591,-1.4558,-1.4521,-1.4471,-1.4422,-1.4383,-1.4367,-1.4353,-1.4368,-1.4347,-1.4309,-1.4301,-1.4294,-1.4297,-1.4366,-1.4366,-1.4391,-1.4391,-1.4391]},{"header":{"parameterUnit":"m.s-1","parameterCategory":1,"la1":30.2991,"la2":30.254,"lo1":-89.0895,"lo2":-89.0444,"dy":0.0017,"dx":0.0017,"nx":28,"ny":28,"refTime":"2025-12-11T09:00:00:Z","depth":0,"parameterNumber":3,"parameterNumberName":"V-component_of_WINDS"},"data":[0,0,0,0,0,0,0,0,0,0,0,0,0,0,0,0,0,0,0,0,0,0,0,0,0,0,0,0,0,0,0,0,0,0,0,0,0,0,0,0,0,0,0,0,0,0,0,0,0,0,0,0,0,0,0,0,0,0,0.683,0.683,0,0.682,0.682,0.682,0.6823,0.6824,0.6824,0.6824,0.6814,0.6814,0.6813,0,0,0,0,0,0,0,0,0,0,0,0,0,0.6853,0.6852,0.683,0.683,0.683,0.682,0.682,0.682,0.6823,0.6824,0.6824,0.6824,0.6814,0.6814,0.6813,0,0,0,0,0,0,0,0,0,0,0,0,0,0.6843,0.6852,0.683,0.683,0.683,0.682,0.682,0.682,0.6823,0.6824,0.6824,0.6824,0.6814,0.6814,0.6813,0.6802,0,0,0.6811,0.681,0,0,0,0,0,0,0,0,0.6843,0.6842,0.683,0.683,0.683,0.6823,0.6824,0.6814,0.6823,0.6826,0.6824,0.6824,0.6817,0.6816,0.6813,0.6801,0.6801,0.6811,0.681,0.681,0.681,0,0,0,0,0,0,0,0.6844,0.6842,0.6826,0.683,0.683,0.6831,0.683,0.6822,0.682,0.6826,0.6826,0.6825,0.6817,0.6814,0.6813,0.6801,0.6811,0.681,0.681,0.6809,0.678,0.678,0,0,0,0,0,0,0.6845,0.6843,0.6826,0.6826,0.6838,0.6831,0.6829,0.6825,0.682,0.6819,0.6825,0.6825,0.6815,0.6814,0.6813,0.68,0.681,0.6809,0.6809,0.6781,0.678,0.678,0,0,0,0,0,0,0.6845,0.6843,0.6827,0.6834,0.6832,0.683,0.6825,0.6825,0.6822,0.6819,0.6818,0.6822,0.6815,0.6814,0.6805,0.68,0.6809,0.6808,0.6781,0.678,0.678,0.6774,0,0,0,0,0,0,0.6846,0.6843,0.6839,0.6834,0.6832,0.6819,0.6825,0.6824,0.6821,0.6821,0.6816,0.6816,0.6815,0.6806,0.6804,0.6799,0.6808,0.6781,0.6781,0.678,0.6775,0.6773,0.6772,0,0,0,0,0,0.6847,0.6837,0.6839,0.6837,0.6826,0.6818,0.6817,0.6817,0.682,0.6816,0.6814,0.6816,0.6801,0.6805,0.6803,0.6797,0.6782,0.6781,0.678,0.6775,0.6774,0.6772,0,0,0,0,0,0,0.6841,0.6837,0.6838,0.6827,0.6823,0.6819,0.6814,0.6815,0.681,0.6811,0.681,0.6809,0.68,0.6798,0.6803,0.6787,0.6792,0.6791,0.6789,0.6787,0.6786,0.6787,0.6807,0,0,0,0,0,0.6839,0.6833,0.6829,0.682,0.6818,0.6816,0.6813,0.6813,0.6809,0.6807,0.6804,0.68,0.6794,0.6791,0.6785,0.6774,0.6774,0.677,0.6769,0.6768,0.6767,0.6761,0.676,0.6777,0.6777,0.6777,0,0,0.6834,0.6831,0.6827,0.6819,0.6816,0.681,0.6815,0.6808,0.6803,0.6806,0.6797,0.6795,0.6791,0.6781,0.6777,0.6779,0.6762,0.6767,0.6766,0.6765,0.676,0.6759,0.6757,0.6777,0.6777,0.6777,0,0,0.6821,0.6818,0.681,0.6807,0.6803,0.6802,0.68,0.6796,0.6795,0.6786,0.6788,0.6783,0.6773,0.677,0.6767,0.6754,0.6756,0.6752,0.6746,0.6741,0.674,0.6738,0.6734,0.6733,0.6751,0.6751,0.6751,0,0.6816,0.6806,0.6806,0.6799,0.6796,0.6798,0.6791,0.6788,0.6782,0.6779,0.6782,0.677,0.6767,0.6757,0.6754,0.6752,0.675,0.6753,0.674,0.6739,0.6737,0.6733,0.6732,0.6751,0.6751,0.6751,0.6751,0,0.68,0.6793,0.6788,0.6782,0.6778,0.6771,0.677,0.6766,0.6767,0.6765,0.6757,0.6754,0.6748,0.6745,0.6746,0.6736,0.6737,0.674,0.6745,0.6735,0.6732,0.673,0.675,0.6751,0.6751,0.6751,0,0,0.6783,0.6778,0.6776,0.6774,0.6769,0.6764,0.6757,0.6752,0.6749,0.6744,0.6739,0.6731,0.6733,0.673,0.673,0.6726,0.6717,0.6729,0.6729,0.6727,0.6706,0.6704,0.6702,0.6718,0.6718,0.6717,0.6706,0,0.6771,0.6759,0.6759,0.6748,0.6742,0.6744,0.6739,0.6735,0.6734,0.6729,0.6728,0.6723,0.6726,0.6724,0.672,0.6719,0.6712,0.6719,0.6713,0.6713,0.6714,0.67,0.6698,0.6687,0.6705,0.6704,0.6704,0,0.6754,0.675,0.6738,0.6735,0.6733,0.6727,0.6723,0.6718,0.6715,0.6714,0.6711,0.6712,0.6705,0.6711,0.6702,0.6707,0.6704,0.6703,0.6703,0.6702,0.6708,0.6699,0.6684,0.6682,0.6702,0.6702,0.6702,0,0.6744,0.6735,0.6727,0.6725,0.6721,0.6717,0.6716,0.6712,0.6709,0.6705,0.6703,0.6699,0.6696,0.6692,0.6692,0.6696,0.6684,0.6689,0.6683,0.6683,0.668,0.6681,0.6665,0.6678,0.6679,0.6679,0.6679,0,0.673,0.6723,0.6722,0.6718,0.671,0.671,0.6703,0.6701,0.6699,0.6694,0.6696,0.6691,0.6691,0.6687,0.6687,0.668,0.6678,0.6678,0.6678,0.6678,0.6678,0.6676,0.6677,0.6678,0.6678,0.6678,0.6678,0,0.6717,0.6716,0.6708,0.6705,0.6704,0.6699,0.6696,0.6692,0.6691,0.6685,0.6684,0.6683,0.6678,0.6677,0.6671,0.6671,0.6663,0.6663,0.6664,0.6664,0.6659,0.6659,0.6641,0.6639,0.6654,0.6654,0.6654,0,0.6708,0.6703,0.67,0.6696,0.6695,0.6689,0.6686,0.6687,0.6684,0.668,0.6676,0.6671,0.6667,0.6659,0.6657,0.6653,0.6654,0.6648,0.6653,0.6653,0.6654,0.6654,0.6654,0.6647,0.6647,0.6646,0.6646,0,0.6693,0.6693,0.6688,0.6684,0.668,0.6677,0.6674,0.6671,0.6671,0.6668,0.6662,0.6659,0.6653,0.6649,0.6644,0.6643,0.6645,0.6645,0.6643,0.6643,0.6644,0.6644,0.6661,0.6645,0.6645,0.6645,0.6645,0.6645,0.6682,0.6677,0.6675,0.667,0.6667,0.6665,0.666,0.6659,0.6655,0.665,0.6651,0.6645,0.6643,0.6637,0.6635,0.6631,0.6633,0.6631,0.663,0.663,0.663,0.6644,0.663,0.663,0.663,0.663,0.663,0,0.6667,0.6665,0.6661,0.6656,0.6653,0.6655,0.6652,0.6648,0.6644,0.6641,0.6637,0.6631,0.6627,0.6626,0.6621,0.6618,0.6619,0.6617,0.6617,0.6617,0.6628,0.663,0.6617,0.6617,0.6617,0.6617,0.6617,0.6617,0.6658,0.6651,0.6651,0.6643,0.6642,0.6636,0.6634,0.6632,0.663,0.6623,0.662,0.6619,0.6617,0.6613,0.6609,0.6609,0.6607,0.6605,0.6605,0.6615,0.6616,0.6618,0.6619,0.6604,0.6604,0.6595,0.6595,0.6595]}]]